Year,Month,Day,Hour,Minute,Value (Times are PST for temperature in C)
2007,09,28,00,00,10.60
2007,09,28,00,01,10.60
2007,09,28,00,02,10.60
2007,09,28,00,03,10.60
2007,09,28,00,04,10.60
2007,09,28,00,05,10.70
2007,09,28,00,06,10.70
2007,09,28,00,07,10.70
2007,09,28,00,08,10.70
2007,09,28,00,09,10.60
2007,09,28,00,10,10.60
2007,09,28,00,11,10.60
2007,09,28,00,12,10.60
2007,09,28,00,13,10.60
2007,09,28,00,14,10.60
2007,09,28,00,15,10.60
2007,09,28,00,16,10.60
2007,09,28,00,17,10.60
2007,09,28,00,18,10.60
2007,09,28,00,19,10.60
2007,09,28,00,20,10.60
2007,09,28,00,21,10.60
2007,09,28,00,22,10.60
2007,09,28,00,23,10.60
2007,09,28,00,24,10.60
2007,09,28,00,25,10.60
2007,09,28,00,26,10.50
2007,09,28,00,27,10.40
2007,09,28,00,28,10.40
2007,09,28,00,29,10.40
2007,09,28,00,30,10.40
2007,09,28,00,31,10.40
2007,09,28,00,32,10.40
2007,09,28,00,33,10.40
2007,09,28,00,34,10.40
2007,09,28,00,35,10.40
2007,09,28,00,36,10.50
2007,09,28,00,37,10.60
2007,09,28,00,38,10.60
2007,09,28,00,39,10.60
2007,09,28,00,40,10.60
2007,09,28,00,41,10.60
2007,09,28,00,42,10.60
2007,09,28,00,43,10.60
2007,09,28,00,44,10.60
2007,09,28,00,45,10.50
2007,09,28,00,46,10.40
2007,09,28,00,47,10.40
2007,09,28,00,48,10.40
2007,09,28,00,49,10.40
2007,09,28,00,50,10.40
2007,09,28,00,51,10.40
2007,09,28,00,52,10.40
2007,09,28,00,53,10.40
2007,09,28,00,54,10.40
2007,09,28,00,55,10.40
2007,09,28,00,56,10.40
2007,09,28,00,57,10.40
2007,09,28,00,58,10.40
2007,09,28,00,59,10.40
2007,09,28,01,00,10.40
2007,09,28,01,01,10.40
2007,09,28,01,02,10.40
2007,09,28,01,03,10.40
2007,09,28,01,04,10.40
2007,09,28,01,05,10.40
2007,09,28,01,06,10.30
2007,09,28,01,07,10.30
2007,09,28,01,08,10.30
2007,09,28,01,09,10.30
2007,09,28,01,10,10.30
2007,09,28,01,11,10.30
2007,09,28,01,12,10.30
2007,09,28,01,13,10.30
2007,09,28,01,14,10.30
2007,09,28,01,15,10.20
2007,09,28,01,16,10.20
2007,09,28,01,17,10.20
2007,09,28,01,18,10.20
2007,09,28,01,19,10.20
2007,09,28,01,20,10.20
2007,09,28,01,21,10.10
2007,09,28,01,22,10.10
2007,09,28,01,23,10.10
2007,09,28,01,24,10.10
2007,09,28,01,25,10.10
2007,09,28,01,26,10.10
2007,09,28,01,27,10.10
2007,09,28,01,28,10.10
2007,09,28,01,29,10.10
2007,09,28,01,30,10.10
2007,09,28,01,31,10.10
2007,09,28,01,32,10.10
2007,09,28,01,33,10.10
2007,09,28,01,34,10.10
2007,09,28,01,35,10.10
2007,09,28,01,36,10.10
2007,09,28,01,37,10.10
2007,09,28,01,38,10.10
2007,09,28,01,39,10.10
2007,09,28,01,40,10.10
2007,09,28,01,41,10.10
2007,09,28,01,42,10.10
2007,09,28,01,43,10.10
2007,09,28,01,44,10.10
2007,09,28,01,45,10.10
2007,09,28,01,46,10.00
2007,09,28,01,47,9.90
2007,09,28,01,48,9.90
2007,09,28,01,49,9.90
2007,09,28,01,50,9.90
2007,09,28,01,51,9.90
2007,09,28,01,52,9.90
2007,09,28,01,53,9.90
2007,09,28,01,54,9.90
2007,09,28,01,55,9.90
2007,09,28,01,56,9.90
2007,09,28,01,57,9.90
2007,09,28,01,58,9.90
2007,09,28,01,59,9.90
2007,09,28,02,00,9.90
2007,09,28,02,01,9.90
2007,09,28,02,02,9.90
2007,09,28,02,03,9.90
2007,09,28,02,04,9.90
2007,09,28,02,05,9.90
2007,09,28,02,06,9.90
2007,09,28,02,07,9.90
2007,09,28,02,08,9.90
2007,09,28,02,09,9.90
2007,09,28,02,10,9.90
2007,09,28,02,11,9.90
2007,09,28,02,12,9.90
2007,09,28,02,13,9.80
2007,09,28,02,14,9.80
2007,09,28,02,15,9.80
2007,09,28,02,16,9.80
2007,09,28,02,17,9.80
2007,09,28,02,18,9.80
2007,09,28,02,19,9.70
2007,09,28,02,20,9.70
2007,09,28,02,21,9.70
2007,09,28,02,22,9.70
2007,09,28,02,23,9.70
2007,09,28,02,24,9.70
2007,09,28,02,25,9.70
2007,09,28,02,26,9.70
2007,09,28,02,27,9.60
2007,09,28,02,28,9.60
2007,09,28,02,29,9.60
2007,09,28,02,30,9.60
2007,09,28,02,31,9.60
2007,09,28,02,32,9.50
2007,09,28,02,33,9.50
2007,09,28,02,34,9.50
2007,09,28,02,35,9.50
2007,09,28,02,36,9.50
2007,09,28,02,37,9.50
2007,09,28,02,38,9.50
2007,09,28,02,39,9.50
2007,09,28,02,40,9.50
2007,09,28,02,41,9.50
2007,09,28,02,42,9.50
2007,09,28,02,43,9.50
2007,09,28,02,44,9.60
2007,09,28,02,45,9.60
2007,09,28,02,46,9.60
2007,09,28,02,47,9.70
2007,09,28,02,48,9.70
2007,09,28,02,49,9.70
2007,09,28,02,50,9.70
2007,09,28,02,51,9.70
2007,09,28,02,52,9.70
2007,09,28,02,53,9.70
2007,09,28,02,54,9.70
2007,09,28,02,55,9.80
2007,09,28,02,56,9.80
2007,09,28,02,57,9.80
2007,09,28,02,58,9.80
2007,09,28,02,59,9.90
2007,09,28,03,00,9.90
2007,09,28,03,01,9.90
2007,09,28,03,02,9.90
2007,09,28,03,03,9.80
2007,09,28,03,04,9.80
2007,09,28,03,05,9.80
2007,09,28,03,06,9.80
2007,09,28,03,07,9.80
2007,09,28,03,08,9.70
2007,09,28,03,09,9.70
2007,09,28,03,10,9.70
2007,09,28,03,11,9.70
2007,09,28,03,12,9.70
2007,09,28,03,13,9.70
2007,09,28,03,14,9.70
2007,09,28,03,15,9.70
2007,09,28,03,16,9.70
2007,09,28,03,17,9.60
2007,09,28,03,18,9.60
2007,09,28,03,19,9.60
2007,09,28,03,20,9.60
2007,09,28,03,21,9.50
2007,09,28,03,22,9.50
2007,09,28,03,23,9.50
2007,09,28,03,24,9.40
2007,09,28,03,25,9.40
2007,09,28,03,26,9.40
2007,09,28,03,27,9.40
2007,09,28,03,28,9.30
2007,09,28,03,29,9.30
2007,09,28,03,30,9.30
2007,09,28,03,31,9.30
2007,09,28,03,32,9.20
2007,09,28,03,33,9.20
2007,09,28,03,34,9.20
2007,09,28,03,35,9.20
2007,09,28,03,36,9.20
2007,09,28,03,37,9.20
2007,09,28,03,38,9.20
2007,09,28,03,39,9.10
2007,09,28,03,40,9.10
2007,09,28,03,41,9.10
2007,09,28,03,42,9.10
2007,09,28,03,43,9.10
2007,09,28,03,44,9.00
2007,09,28,03,45,9.00
2007,09,28,03,46,9.00
2007,09,28,03,47,9.00
2007,09,28,03,48,9.00
2007,09,28,03,49,8.90
2007,09,28,03,50,8.90
2007,09,28,03,51,8.90
2007,09,28,03,52,8.90
2007,09,28,03,53,8.90
2007,09,28,03,54,8.90
2007,09,28,03,55,8.90
2007,09,28,03,56,8.90
2007,09,28,03,57,8.90
2007,09,28,03,58,8.90
2007,09,28,03,59,8.90
2007,09,28,04,00,8.80
2007,09,28,04,01,8.80
2007,09,28,04,02,8.80
2007,09,28,04,03,8.80
2007,09,28,04,04,8.80
2007,09,28,04,05,8.80
2007,09,28,04,06,8.80
2007,09,28,04,07,8.80
2007,09,28,04,08,8.70
2007,09,28,04,09,8.70
2007,09,28,04,10,8.70
2007,09,28,04,11,8.70
2007,09,28,04,12,8.70
2007,09,28,04,13,8.70
2007,09,28,04,14,8.70
2007,09,28,04,15,8.70
2007,09,28,04,16,8.70
2007,09,28,04,17,8.60
2007,09,28,04,18,8.60
2007,09,28,04,19,8.60
2007,09,28,04,20,8.50
2007,09,28,04,21,8.50
2007,09,28,04,22,8.50
2007,09,28,04,23,8.50
2007,09,28,04,24,8.40
2007,09,28,04,25,8.40
2007,09,28,04,26,8.40
2007,09,28,04,27,8.40
2007,09,28,04,28,8.30
2007,09,28,04,29,8.30
2007,09,28,04,30,8.30
2007,09,28,04,31,8.20
2007,09,28,04,32,8.20
2007,09,28,04,33,8.20
2007,09,28,04,34,8.20
2007,09,28,04,35,8.20
2007,09,28,04,36,8.20
2007,09,28,04,37,8.10
2007,09,28,04,38,8.10
2007,09,28,04,39,8.00
2007,09,28,04,40,8.00
2007,09,28,04,41,8.00
2007,09,28,04,42,7.90
2007,09,28,04,43,7.90
2007,09,28,04,44,7.90
2007,09,28,04,45,7.80
2007,09,28,04,46,7.80
2007,09,28,04,47,7.80
2007,09,28,04,48,7.80
2007,09,28,04,49,7.80
2007,09,28,04,50,7.80
2007,09,28,04,51,7.70
2007,09,28,04,52,7.70
2007,09,28,04,53,7.70
2007,09,28,04,54,7.60
2007,09,28,04,55,7.60
2007,09,28,04,56,7.60
2007,09,28,04,57,7.50
2007,09,28,04,58,7.50
2007,09,28,04,59,7.50
2007,09,28,05,00,7.40
2007,09,28,05,01,7.40
2007,09,28,05,02,7.40
2007,09,28,05,03,7.40
2007,09,28,05,04,7.40
2007,09,28,05,05,7.30
2007,09,28,05,06,7.30
2007,09,28,05,07,7.30
2007,09,28,05,08,7.30
2007,09,28,05,09,7.30
2007,09,28,05,10,7.30
2007,09,28,05,11,7.30
2007,09,28,05,12,7.30
2007,09,28,05,13,7.20
2007,09,28,05,14,7.20
2007,09,28,05,15,7.20
2007,09,28,05,16,7.10
2007,09,28,05,17,7.10
2007,09,28,05,18,7.10
2007,09,28,05,19,7.10
2007,09,28,05,20,7.00
2007,09,28,05,21,7.00
2007,09,28,05,22,7.00
2007,09,28,05,23,7.00
2007,09,28,05,24,7.00
2007,09,28,05,25,7.00
2007,09,28,05,26,7.00
2007,09,28,05,27,7.00
2007,09,28,05,28,6.90
2007,09,28,05,29,6.90
2007,09,28,05,30,6.90
2007,09,28,05,31,6.80
2007,09,28,05,32,6.80
2007,09,28,05,33,6.80
2007,09,28,05,34,6.80
2007,09,28,05,35,6.70
2007,09,28,05,36,6.70
2007,09,28,05,37,6.70
2007,09,28,05,38,6.70
2007,09,28,05,39,6.60
2007,09,28,05,40,6.60
2007,09,28,05,41,6.60
2007,09,28,05,42,6.60
2007,09,28,05,43,6.60
2007,09,28,05,44,6.60
2007,09,28,05,45,6.60
2007,09,28,05,46,6.60
2007,09,28,05,47,6.50
2007,09,28,05,48,6.40
2007,09,28,05,49,6.40
2007,09,28,05,50,6.40
2007,09,28,05,51,6.40
2007,09,28,05,52,6.40
2007,09,28,05,53,6.40
2007,09,28,05,54,6.30
2007,09,28,05,55,6.30
2007,09,28,05,56,6.30
2007,09,28,05,57,6.30
2007,09,28,05,58,6.20
2007,09,28,05,59,6.20
2007,09,28,06,00,6.20
2007,09,28,06,01,6.20
2007,09,28,06,02,6.20
2007,09,28,06,03,6.20
2007,09,28,06,04,6.20
2007,09,28,06,05,6.10
2007,09,28,06,06,6.10
2007,09,28,06,07,6.10
2007,09,28,06,08,6.10
2007,09,28,06,09,6.10
2007,09,28,06,10,6.10
2007,09,28,06,11,6.10
2007,09,28,06,12,6.10
2007,09,28,06,13,6.10
2007,09,28,06,14,6.00
2007,09,28,06,15,6.00
2007,09,28,06,16,6.00
2007,09,28,06,17,5.90
2007,09,28,06,18,5.90
2007,09,28,06,19,5.80
2007,09,28,06,20,5.80
2007,09,28,06,21,5.80
2007,09,28,06,22,5.70
2007,09,28,06,23,5.70
2007,09,28,06,24,5.70
2007,09,28,06,25,5.70
2007,09,28,06,26,5.70
2007,09,28,06,27,5.60
2007,09,28,06,28,5.60
2007,09,28,06,29,5.60
2007,09,28,06,30,5.60
2007,09,28,06,31,5.50
2007,09,28,06,32,5.50
2007,09,28,06,33,5.50
2007,09,28,06,34,5.50
2007,09,28,06,35,5.50
2007,09,28,06,36,5.50
2007,09,28,06,37,5.50
2007,09,28,06,38,5.50
2007,09,28,06,39,5.40
2007,09,28,06,40,5.40
2007,09,28,06,41,5.30
2007,09,28,06,42,5.30
2007,09,28,06,43,5.30
2007,09,28,06,44,5.30
2007,09,28,06,45,5.30
2007,09,28,06,46,5.30
2007,09,28,06,47,5.20
2007,09,28,06,48,5.20
2007,09,28,06,49,5.20
2007,09,28,06,50,5.20
2007,09,28,06,51,5.10
2007,09,28,06,52,5.10
2007,09,28,06,53,5.10
2007,09,28,06,54,5.10
2007,09,28,06,55,5.10
2007,09,28,06,56,5.10
2007,09,28,06,57,5.10
2007,09,28,06,58,5.10
2007,09,28,06,59,5.00
2007,09,28,07,00,4.90
2007,09,28,07,01,4.90
2007,09,28,07,02,4.90
2007,09,28,07,03,4.90
2007,09,28,07,04,4.90
2007,09,28,07,05,4.90
2007,09,28,07,06,4.90
2007,09,28,07,07,4.90
2007,09,28,07,08,4.90
2007,09,28,07,09,4.90
2007,09,28,07,10,4.90
2007,09,28,07,11,4.90
2007,09,28,07,12,4.90
2007,09,28,07,13,4.90
2007,09,28,07,14,4.90
2007,09,28,07,15,4.80
2007,09,28,07,16,4.80
2007,09,28,07,17,4.80
2007,09,28,07,18,4.80
2007,09,28,07,19,4.80
2007,09,28,07,20,4.70
2007,09,28,07,21,4.70
2007,09,28,07,22,4.70
2007,09,28,07,23,4.70
2007,09,28,07,24,4.70
2007,09,28,07,25,4.70
2007,09,28,07,26,4.70
2007,09,28,07,27,4.70
2007,09,28,07,28,4.70
2007,09,28,07,29,4.70
2007,09,28,07,30,4.70
2007,09,28,07,31,4.70
2007,09,28,07,32,4.70
2007,09,28,07,33,4.80
2007,09,28,07,34,4.80
2007,09,28,07,35,4.80
2007,09,28,07,36,4.80
2007,09,28,07,37,4.80
2007,09,28,07,38,4.80
2007,09,28,07,39,4.90
2007,09,28,07,40,4.90
2007,09,28,07,41,4.90
2007,09,28,07,42,4.90
2007,09,28,07,43,4.90
2007,09,28,07,44,4.90
2007,09,28,07,45,5.10
2007,09,28,07,46,5.10
2007,09,28,07,47,5.10
2007,09,28,07,48,5.10
2007,09,28,07,49,5.10
2007,09,28,07,50,5.10
2007,09,28,07,51,5.10
2007,09,28,07,52,5.20
2007,09,28,07,53,5.20
2007,09,28,07,54,5.20
2007,09,28,07,55,5.30
2007,09,28,07,56,5.30
2007,09,28,07,57,5.30
2007,09,28,07,58,5.30
2007,09,28,07,59,5.30
2007,09,28,08,00,5.40
2007,09,28,08,01,5.40
2007,09,28,08,02,5.50
2007,09,28,08,03,5.60
2007,09,28,08,04,5.70
2007,09,28,08,05,5.70
2007,09,28,08,06,5.80
2007,09,28,08,07,5.90
2007,09,28,08,08,6.00
2007,09,28,08,09,6.00
2007,09,28,08,10,6.10
2007,09,28,08,11,6.20
2007,09,28,08,12,6.30
2007,09,28,08,13,6.40
2007,09,28,08,14,6.40
2007,09,28,08,15,6.50
2007,09,28,08,16,6.60
2007,09,28,08,17,6.60
2007,09,28,08,18,6.70
2007,09,28,08,19,6.70
2007,09,28,08,20,6.80
2007,09,28,08,21,6.90
2007,09,28,08,22,7.00
2007,09,28,08,23,7.10
2007,09,28,08,24,7.20
2007,09,28,08,25,7.30
2007,09,28,08,26,7.40
2007,09,28,08,27,7.50
2007,09,28,08,28,7.60
2007,09,28,08,29,7.70
2007,09,28,08,30,7.80
2007,09,28,08,31,7.90
2007,09,28,08,32,8.00
2007,09,28,08,33,8.10
2007,09,28,08,34,8.20
2007,09,28,08,35,8.40
2007,09,28,08,36,8.50
2007,09,28,08,37,8.60
2007,09,28,08,38,8.70
2007,09,28,08,39,8.70
2007,09,28,08,40,8.80
2007,09,28,08,41,8.90
2007,09,28,08,42,9.00
2007,09,28,08,43,9.20
2007,09,28,08,44,9.30
2007,09,28,08,45,9.40
2007,09,28,08,46,9.60
2007,09,28,08,47,9.70
2007,09,28,08,48,9.80
2007,09,28,08,49,9.90
2007,09,28,08,50,10.00
2007,09,28,08,51,10.10
2007,09,28,08,52,10.10
2007,09,28,08,53,10.20
2007,09,28,08,54,10.20
2007,09,28,08,55,10.20
2007,09,28,08,56,10.30
2007,09,28,08,57,10.30
2007,09,28,08,58,10.30
2007,09,28,08,59,10.40
2007,09,28,09,00,10.40
2007,09,28,09,01,10.40
2007,09,28,09,02,10.40
2007,09,28,09,03,10.40
2007,09,28,09,04,10.40
2007,09,28,09,05,10.40
2007,09,28,09,06,10.40
2007,09,28,09,07,10.40
2007,09,28,09,08,10.60
2007,09,28,09,09,10.60
2007,09,28,09,10,10.60
2007,09,28,09,11,10.60
2007,09,28,09,12,10.60
2007,09,28,09,13,10.60
2007,09,28,09,14,10.70
2007,09,28,09,15,10.70
2007,09,28,09,16,10.70
2007,09,28,09,17,10.70
2007,09,28,09,18,10.80
2007,09,28,09,19,10.80
2007,09,28,09,20,10.80
2007,09,28,09,21,10.80
2007,09,28,09,22,10.80
2007,09,28,09,23,10.80
2007,09,28,09,24,10.90
2007,09,28,09,25,10.90
2007,09,28,09,26,10.90
2007,09,28,09,27,10.80
2007,09,28,09,28,10.80
2007,09,28,09,29,10.80
2007,09,28,09,30,10.80
2007,09,28,09,31,10.80
2007,09,28,09,32,10.80
2007,09,28,09,33,10.80
2007,09,28,09,34,10.80
2007,09,28,09,35,10.90
2007,09,28,09,36,10.90
2007,09,28,09,37,10.90
2007,09,28,09,38,10.90
2007,09,28,09,39,10.90
2007,09,28,09,40,10.90
2007,09,28,09,41,11.10
2007,09,28,09,42,11.10
2007,09,28,09,43,11.10
2007,09,28,09,44,11.10
2007,09,28,09,45,11.10
2007,09,28,09,46,11.10
2007,09,28,09,47,11.10
2007,09,28,09,48,11.20
2007,09,28,09,49,11.20
2007,09,28,09,50,11.30
2007,09,28,09,51,11.30
2007,09,28,09,52,11.30
2007,09,28,09,53,11.40
2007,09,28,09,54,11.40
2007,09,28,09,55,11.50
2007,09,28,09,56,11.60
2007,09,28,09,57,11.60
2007,09,28,09,58,11.60
2007,09,28,09,59,11.70
2007,09,28,10,00,11.70
2007,09,28,10,01,11.70
2007,09,28,10,02,11.80
2007,09,28,10,03,11.80
2007,09,28,10,04,11.80
2007,09,28,10,05,11.80
2007,09,28,10,06,11.80
2007,09,28,10,07,11.80
2007,09,28,10,08,11.80
2007,09,28,10,09,11.90
2007,09,28,10,10,12.00
2007,09,28,10,11,12.00
2007,09,28,10,12,12.00
2007,09,28,10,13,12.00
2007,09,28,10,14,11.90
2007,09,28,10,15,11.90
2007,09,28,10,16,11.90
2007,09,28,10,17,11.90
2007,09,28,10,18,11.90
2007,09,28,10,19,11.90
2007,09,28,10,20,11.90
2007,09,28,10,21,11.80
2007,09,28,10,22,11.90
2007,09,28,10,23,11.90
2007,09,28,10,24,12.00
2007,09,28,10,25,12.10
2007,09,28,10,26,12.20
2007,09,28,10,27,12.30
2007,09,28,10,28,12.30
2007,09,28,10,29,12.30
2007,09,28,10,30,12.30
2007,09,28,10,31,12.30
2007,09,28,10,32,12.30
2007,09,28,10,33,12.30
2007,09,28,10,34,12.20
2007,09,28,10,35,12.20
2007,09,28,10,36,12.20
2007,09,28,10,37,12.20
2007,09,28,10,38,12.20
2007,09,28,10,39,12.30
2007,09,28,10,40,12.30
2007,09,28,10,41,12.30
2007,09,28,10,42,12.30
2007,09,28,10,43,12.40
2007,09,28,10,44,12.50
2007,09,28,10,45,12.50
2007,09,28,10,46,12.50
2007,09,28,10,47,12.60
2007,09,28,10,48,12.60
2007,09,28,10,49,12.70
2007,09,28,10,50,12.80
2007,09,28,10,51,12.80
2007,09,28,10,52,12.80
2007,09,28,10,53,12.90
2007,09,28,10,54,12.90
2007,09,28,10,55,13.00
2007,09,28,10,56,13.00
2007,09,28,10,57,13.00
2007,09,28,10,58,13.00
2007,09,28,10,59,13.00
2007,09,28,11,00,13.00
2007,09,28,11,01,13.10
2007,09,28,11,02,13.00
2007,09,28,11,03,13.00
2007,09,28,11,04,12.90
2007,09,28,11,05,12.90
2007,09,28,11,06,12.90
2007,09,28,11,07,12.90
2007,09,28,11,08,13.00
2007,09,28,11,09,13.00
2007,09,28,11,10,13.10
2007,09,28,11,11,13.20
2007,09,28,11,12,13.20
2007,09,28,11,13,13.20
2007,09,28,11,14,13.20
2007,09,28,11,15,13.20
2007,09,28,11,16,13.20
2007,09,28,11,17,13.20
2007,09,28,11,18,13.20
2007,09,28,11,19,13.10
2007,09,28,11,20,13.20
2007,09,28,11,21,13.30
2007,09,28,11,22,13.30
2007,09,28,11,23,13.30
2007,09,28,11,24,13.30
2007,09,28,11,25,13.30
2007,09,28,11,26,13.20
2007,09,28,11,27,13.20
2007,09,28,11,28,13.20
2007,09,28,11,29,13.10
2007,09,28,11,30,13.10
2007,09,28,11,31,13.20
2007,09,28,11,32,13.20
2007,09,28,11,33,13.20
2007,09,28,11,34,13.20
2007,09,28,11,35,13.20
2007,09,28,11,36,13.20
2007,09,28,11,37,13.30
2007,09,28,11,38,13.30
2007,09,28,11,39,13.30
2007,09,28,11,40,13.40
2007,09,28,11,41,13.50
2007,09,28,11,42,13.60
2007,09,28,11,43,13.70
2007,09,28,11,44,13.70
2007,09,28,11,45,13.70
2007,09,28,11,46,13.70
2007,09,28,11,47,13.80
2007,09,28,11,48,13.70
2007,09,28,11,49,13.70
2007,09,28,11,50,13.80
2007,09,28,11,51,13.80
2007,09,28,11,52,13.80
2007,09,28,11,53,13.80
2007,09,28,11,54,13.80
2007,09,28,11,55,13.90
2007,09,28,11,56,13.90
2007,09,28,11,57,14.00
2007,09,28,11,58,13.90
2007,09,28,11,59,13.90
2007,09,28,12,00,13.90
2007,09,28,12,01,13.80
2007,09,28,12,02,13.70
2007,09,28,12,03,13.70
2007,09,28,12,04,13.70
2007,09,28,12,05,13.70
2007,09,28,12,06,13.70
2007,09,28,12,07,13.70
2007,09,28,12,08,13.70
2007,09,28,12,09,13.70
2007,09,28,12,10,13.70
2007,09,28,12,11,13.80
2007,09,28,12,12,13.90
2007,09,28,12,13,13.90
2007,09,28,12,14,13.90
2007,09,28,12,15,13.90
2007,09,28,12,16,13.70
2007,09,28,12,17,13.70
2007,09,28,12,18,13.60
2007,09,28,12,19,13.50
2007,09,28,12,20,13.40
2007,09,28,12,21,13.40
2007,09,28,12,22,13.40
2007,09,28,12,23,13.40
2007,09,28,12,24,13.50
2007,09,28,12,25,13.50
2007,09,28,12,26,13.40
2007,09,28,12,27,13.40
2007,09,28,12,28,13.40
2007,09,28,12,29,13.40
2007,09,28,12,30,13.30
2007,09,28,12,31,13.30
2007,09,28,12,32,13.30
2007,09,28,12,33,13.30
2007,09,28,12,34,13.40
2007,09,28,12,35,13.50
2007,09,28,12,36,13.50
2007,09,28,12,37,13.50
2007,09,28,12,38,13.60
2007,09,28,12,39,13.70
2007,09,28,12,40,13.80
2007,09,28,12,41,13.80
2007,09,28,12,42,13.90
2007,09,28,12,43,13.90
2007,09,28,12,44,13.90
2007,09,28,12,45,14.00
2007,09,28,12,46,14.00
2007,09,28,12,47,13.90
2007,09,28,12,48,13.90
2007,09,28,12,49,13.80
2007,09,28,12,50,13.80
2007,09,28,12,51,13.90
2007,09,28,12,52,13.90
2007,09,28,12,53,13.90
2007,09,28,12,54,13.90
2007,09,28,12,55,14.00
2007,09,28,12,56,14.00
2007,09,28,12,57,14.10
2007,09,28,12,58,14.00
2007,09,28,12,59,14.00
2007,09,28,13,00,13.90
2007,09,28,13,01,13.90
2007,09,28,13,02,14.00
2007,09,28,13,03,14.00
2007,09,28,13,04,14.10
2007,09,28,13,05,14.10
2007,09,28,13,06,14.20
2007,09,28,13,07,14.30
2007,09,28,13,08,14.40
2007,09,28,13,09,14.40
2007,09,28,13,10,14.40
2007,09,28,13,11,14.30
2007,09,28,13,12,14.20
2007,09,28,13,13,14.20
2007,09,28,13,14,14.10
2007,09,28,13,15,14.10
2007,09,28,13,16,14.10
2007,09,28,13,17,14.10
2007,09,28,13,18,14.10
2007,09,28,13,19,14.10
2007,09,28,13,20,14.10
2007,09,28,13,21,14.20
2007,09,28,13,22,14.20
2007,09,28,13,23,14.30
2007,09,28,13,24,14.40
2007,09,28,13,25,14.40
2007,09,28,13,26,14.30
2007,09,28,13,27,14.40
2007,09,28,13,28,14.40
2007,09,28,13,29,14.40
2007,09,28,13,30,14.30
2007,09,28,13,31,14.20
2007,09,28,13,32,14.20
2007,09,28,13,33,14.20
2007,09,28,13,34,14.30
2007,09,28,13,35,14.40
2007,09,28,13,36,14.40
2007,09,28,13,37,14.30
2007,09,28,13,38,14.20
2007,09,28,13,39,14.20
2007,09,28,13,40,14.10
2007,09,28,13,41,14.10
2007,09,28,13,42,14.10
2007,09,28,13,43,14.20
2007,09,28,13,44,14.20
2007,09,28,13,45,14.20
2007,09,28,13,46,14.20
2007,09,28,13,47,14.30
2007,09,28,13,48,14.20
2007,09,28,13,49,14.10
2007,09,28,13,50,14.00
2007,09,28,13,51,13.90
2007,09,28,13,52,13.80
2007,09,28,13,53,13.90
2007,09,28,13,54,13.90
2007,09,28,13,55,13.90
2007,09,28,13,56,13.90
2007,09,28,13,57,13.90
2007,09,28,13,58,13.90
2007,09,28,13,59,14.00
2007,09,28,14,00,14.00
2007,09,28,14,01,14.00
2007,09,28,14,02,14.10
2007,09,28,14,03,14.10
2007,09,28,14,04,14.20
2007,09,28,14,05,14.30
2007,09,28,14,06,14.40
2007,09,28,14,07,14.30
2007,09,28,14,08,14.30
2007,09,28,14,09,14.20
2007,09,28,14,10,14.20
2007,09,28,14,11,14.10
2007,09,28,14,12,14.00
2007,09,28,14,13,14.00
2007,09,28,14,14,14.00
2007,09,28,14,15,14.00
2007,09,28,14,16,14.00
2007,09,28,14,17,14.00
2007,09,28,14,18,13.90
2007,09,28,14,19,13.90
2007,09,28,14,20,13.90
2007,09,28,14,21,13.90
2007,09,28,14,22,14.00
2007,09,28,14,23,14.00
2007,09,28,14,24,14.20
2007,09,28,14,25,14.20
2007,09,28,14,26,14.20
2007,09,28,14,27,14.20
2007,09,28,14,28,14.20
2007,09,28,14,29,14.20
2007,09,28,14,30,14.20
2007,09,28,14,31,14.20
2007,09,28,14,32,14.20
2007,09,28,14,33,14.20
2007,09,28,14,34,14.20
2007,09,28,14,35,14.20
2007,09,28,14,36,14.10
2007,09,28,14,37,14.00
2007,09,28,14,38,13.90
2007,09,28,14,39,13.90
2007,09,28,14,40,13.90
2007,09,28,14,41,14.00
2007,09,28,14,42,14.00
2007,09,28,14,43,14.00
2007,09,28,14,44,14.10
2007,09,28,14,45,14.10
2007,09,28,14,46,14.20
2007,09,28,14,47,14.20
2007,09,28,14,48,14.30
2007,09,28,14,49,14.30
2007,09,28,14,50,14.30
2007,09,28,14,51,14.20
2007,09,28,14,52,14.20
2007,09,28,14,53,14.10
2007,09,28,14,54,14.00
2007,09,28,14,55,14.00
2007,09,28,14,56,14.00
2007,09,28,14,57,14.00
2007,09,28,14,58,14.00
2007,09,28,14,59,14.00
2007,09,28,15,00,13.90
2007,09,28,15,01,13.80
2007,09,28,15,02,13.80
2007,09,28,15,03,13.70
2007,09,28,15,04,13.70
2007,09,28,15,05,13.70
2007,09,28,15,06,13.70
2007,09,28,15,07,13.70
2007,09,28,15,08,13.70
2007,09,28,15,09,13.70
2007,09,28,15,10,13.70
2007,09,28,15,11,13.70
2007,09,28,15,12,13.70
2007,09,28,15,13,13.80
2007,09,28,15,14,13.80
2007,09,28,15,15,13.90
2007,09,28,15,16,13.90
2007,09,28,15,17,14.00
2007,09,28,15,18,14.00
2007,09,28,15,19,14.00
2007,09,28,15,20,14.10
2007,09,28,15,21,14.10
2007,09,28,15,22,14.10
2007,09,28,15,23,14.20
2007,09,28,15,24,14.20
2007,09,28,15,25,14.30
2007,09,28,15,26,14.40
2007,09,28,15,27,14.40
2007,09,28,15,28,14.40
2007,09,28,15,29,14.30
2007,09,28,15,30,14.30
2007,09,28,15,31,14.20
2007,09,28,15,32,14.20
2007,09,28,15,33,14.20
2007,09,28,15,34,14.20
2007,09,28,15,35,14.20
2007,09,28,15,36,14.30
2007,09,28,15,37,14.20
2007,09,28,15,38,14.30
2007,09,28,15,39,14.30
2007,09,28,15,40,14.20
2007,09,28,15,41,14.10
2007,09,28,15,42,14.10
2007,09,28,15,43,14.10
2007,09,28,15,44,14.20
2007,09,28,15,45,14.20
2007,09,28,15,46,14.30
2007,09,28,15,47,14.30
2007,09,28,15,48,14.40
2007,09,28,15,49,14.40
2007,09,28,15,50,14.40
2007,09,28,15,51,14.50
2007,09,28,15,52,14.50
2007,09,28,15,53,14.50
2007,09,28,15,54,14.40
2007,09,28,15,55,14.40
2007,09,28,15,56,14.30
2007,09,28,15,57,14.30
2007,09,28,15,58,14.20
2007,09,28,15,59,14.20
2007,09,28,16,00,14.00
2007,09,28,16,01,13.90
2007,09,28,16,02,13.90
2007,09,28,16,03,13.90
2007,09,28,16,04,14.00
2007,09,28,16,05,14.00
2007,09,28,16,06,14.10
2007,09,28,16,07,14.10
2007,09,28,16,08,14.00
2007,09,28,16,09,14.00
2007,09,28,16,10,13.90
2007,09,28,16,11,13.80
2007,09,28,16,12,13.80
2007,09,28,16,13,13.70
2007,09,28,16,14,13.70
2007,09,28,16,15,13.70
2007,09,28,16,16,13.70
2007,09,28,16,17,13.60
2007,09,28,16,18,13.60
2007,09,28,16,19,13.60
2007,09,28,16,20,13.60
2007,09,28,16,21,13.60
2007,09,28,16,22,13.70
2007,09,28,16,23,13.70
2007,09,28,16,24,13.70
2007,09,28,16,25,13.70
2007,09,28,16,26,13.60
2007,09,28,16,27,13.70
2007,09,28,16,28,13.70
2007,09,28,16,29,13.70
2007,09,28,16,30,13.70
2007,09,28,16,31,13.70
2007,09,28,16,32,13.70
2007,09,28,16,33,13.70
2007,09,28,16,34,13.70
2007,09,28,16,35,13.70
2007,09,28,16,36,13.70
2007,09,28,16,37,13.70
2007,09,28,16,38,13.70
2007,09,28,16,39,13.70
2007,09,28,16,40,13.70
2007,09,28,16,41,13.60
2007,09,28,16,42,13.60
2007,09,28,16,43,13.50
2007,09,28,16,44,13.50
2007,09,28,16,45,13.50
2007,09,28,16,46,13.50
2007,09,28,16,47,13.50
2007,09,28,16,48,13.50
2007,09,28,16,49,13.60
2007,09,28,16,50,13.60
2007,09,28,16,51,13.50
2007,09,28,16,52,13.50
2007,09,28,16,53,13.50
2007,09,28,16,54,13.50
2007,09,28,16,55,13.60
2007,09,28,16,56,13.60
2007,09,28,16,57,13.70
2007,09,28,16,58,13.70
2007,09,28,16,59,13.70
2007,09,28,17,00,13.60
2007,09,28,17,01,13.60
2007,09,28,17,02,13.50
2007,09,28,17,03,13.50
2007,09,28,17,04,13.40
2007,09,28,17,05,13.40
2007,09,28,17,06,13.30
2007,09,28,17,07,13.30
2007,09,28,17,08,13.30
2007,09,28,17,09,13.30
2007,09,28,17,10,13.30
2007,09,28,17,11,13.30
2007,09,28,17,12,13.30
2007,09,28,17,13,13.30
2007,09,28,17,14,13.30
2007,09,28,17,15,13.30
2007,09,28,17,16,13.40
2007,09,28,17,17,13.40
2007,09,28,17,18,13.30
2007,09,28,17,19,13.30
2007,09,28,17,20,13.30
2007,09,28,17,21,13.30
2007,09,28,17,22,13.30
2007,09,28,17,23,13.30
2007,09,28,17,24,13.30
2007,09,28,17,25,13.30
2007,09,28,17,26,13.20
2007,09,28,17,27,13.20
2007,09,28,17,28,13.10
2007,09,28,17,29,13.10
2007,09,28,17,30,13.10
2007,09,28,17,31,13.00
2007,09,28,17,32,13.00
2007,09,28,17,33,13.00
2007,09,28,17,34,13.00
2007,09,28,17,35,13.00
2007,09,28,17,36,13.00
2007,09,28,17,37,12.90